Regional Weather Roundup
Issued by NWS

Home | Current Version | Previous Version | Text Only | Print | Product List | Glossary On
Versions: 1 2 3 4 5 6 7 8 9 10 11 12 13 14 15 16 17 18 19 20 21 22 23 24 25 26 27 28 29 30 31 32 33 34 35 36 37 38 39 40 41 42 43 44 45 46 47 48 49 50
000
ASUS43 KOAX 281210
RWRNE

WEATHER ROUNDUP FOR NEBRASKA
NATIONAL WEATHER SERVICE OMAHA NE
600 AM CST SUN DEC 28 2014

NOTES: SATELLITE DATA IS BEING USED TO AUGMENT CLOUD COVER ABOVE
       12000 FEET.
       "FAIR" INDICATES FEW OR NO CLOUDS BELOW 12,000 FEET WITH NO
       SIGNIFICANT WEATHER AND/OR OBSTRUCTIONS TO VISIBILITY.

  * THESE STATIONS DO NOT REPORT WEATHER SUCH AS RAIN...SNOW OR FOG.

NEZ001>004-019>022-054>056-281300-
NEBRASKA PANHANDLE

CITY           SKY/WX    TMP DP  RH WIND       PRES   REMARKS
SCOTTSBLUFF    CLEAR     -1  -5  82 CALM      29.97F
6HR MIN TEMP:  -4; 6HR MAX TEMP:   7;

ALLIANCE       PTCLDY    -2  -6  83 CALM      29.95F
6HR MIN TEMP:  -7; 6HR MAX TEMP:   2;

CHADRON        MOCLDY     4  -1  80 W10       29.96F WCI -11
6HR MIN TEMP:   0; 6HR MAX TEMP:   6;

KIMBALL        MOCLDY     2  -3  81 W3        29.92S
SIDNEY         PTCLDY    -1  -7  75 W6        29.97F WCI -13
6HR MIN TEMP:  -8; 6HR MAX TEMP:   4;

$$

NEZ057>060-069>072-079>082-281300-
SOUTHWEST NEBRASKA

CITY           SKY/WX    TMP DP  RH WIND       PRES   REMARKS
NORTH PLATTE   PTCLDY    -3  -7  82 CALM      30.05F
6HR MIN TEMP:  -6; 6HR MAX TEMP:   4;

IMPERIAL       PTCLDY    -1  -6  79 SW5       30.03F WCI -11
6HR MIN TEMP:  -2; 6HR MAX TEMP:   7;

LEXINGTON      CLEAR      7   4  87 NW10      30.07F WCI  -7
MCCOOK         CLEAR      2  -3  80 SW8       30.09S WCI -12
6HR MIN TEMP:   2; 6HR MAX TEMP:   9;

OGALLALA       PTCLDY    -2  -5  87 W8        30.03F WCI -16
$$

NEZ005>010-023>029-035>040-094-281300-
NORTH CENTRAL NEBRASKA

CITY           SKY/WX    TMP DP  RH WIND       PRES   REMARKS
VALENTINE      PTCLDY    -2  -5  87 W5        30.02F WCI -12
6HR MIN TEMP:  -4; 6HR MAX TEMP:   6;

AINSWORTH      PTCLDY     8   3  80 W7        30.02S WCI  -4
BROKEN BOW     CLEAR      3  -1  83 CALM      30.04F
6HR MIN TEMP:   2; 6HR MAX TEMP:  20;

O`NEILL        CLEAR      6   2  87 W5        30.05S WCI  -3
ORD            PTCLDY     3   0  87 NW5       30.07S WCI  -6
6HR MIN TEMP:   1; 6HR MAX TEMP:  14;

$$

NEZ041-046>049-061>064-073>077-083>087-281300-
SOUTH CENTRAL NEBRASKA

CITY           SKY/WX    TMP DP  RH WIND       PRES   REMARKS
GRAND ISLAND     N/A     10   5  80 SW6       30.09F WCI   0
6HR MIN TEMP:   9; 6HR MAX TEMP:  16;

AURORA         CLEAR     10   6  85 W3        30.09F
HASTINGS       PTCLDY    11   6  81 CALM      30.08F
6HR MIN TEMP:  11; 6HR MAX TEMP:  20;

HEBRON         CLEAR     16  11  82 W7        30.14F WCI   6
HOLDREGE       PTCLDY    11   6  77 CALM      30.08S
KEARNEY *      PTCLDY    10   7  85 SW9       30.08S WCI  -2
YORK           PTCLDY     9   7  92 W7        30.10F WCI  -3
$$

NEZ011>018-030>034-042>045-281300-
NORTHEAST NEBRASKA

CITY           SKY/WX    TMP DP  RH WIND       PRES   REMARKS
NORFOLK        PTCLDY     9   4  80 W3        30.08F
6HR MIN TEMP:   6; 6HR MAX TEMP:  12;

ALBION         PTCLDY     3  -1  81 CALM      30.08S
BLAIR          CLEAR     16  13  86 CALM      30.11S
COLUMBUS *     CLEAR     10   1  67 W3        30.11F
FREMONT        CLEAR     12   9  87 CALM      30.13R
TEKAMAH        CLEAR     13   8  81 S5        30.13S WCI   5
6HR MIN TEMP:  11; 6HR MAX TEMP:  14;

WAYNE          CLEAR      7   3  86 CALM      30.09F
$$

NEZ050>053-065>068-078-088>093-281300-
SOUTHEAST NEBRASKA

CITY           SKY/WX    TMP DP  RH WIND       PRES   REMARKS
LINCOLN        CLEAR     17  11  77 CALM      30.15F
6HR MIN TEMP:  15; 6HR MAX TEMP:  19;

OMAHA EPPLEY   CLEAR     17  14  88 S7        30.15F WCI   8
6HR MIN TEMP:  16; 6HR MAX TEMP:  20;

BEATRICE       CLEAR     15  12  90 S3        30.15S
FALLS CITY     CLEAR     15  11  83 CALM      30.18S
6HR MIN TEMP:  14; 6HR MAX TEMP:  20;

NEBRASKA CITY  CLEAR     15  11  82 SW6       30.15S WCI   7
PLATTSMOUTH    CLEAR     15  12  86 S7        30.13F WCI   5
$$

NEZ044-045-051>053-067-281300-
OMAHA AREA

CITY           SKY/WX    TMP DP  RH WIND       PRES   REMARKS
OMAHA EPPLEY   CLEAR     17  14  88 S7        30.15F WCI   8
6HR MIN TEMP:  16; 6HR MAX TEMP:  20;

BLAIR          CLEAR     16  13  86 CALM      30.11S
FREMONT        CLEAR     12   9  87 CALM      30.13R
MILLARD        CLEAR     17  14  86 CALM      30.14S
OFFUTT AFB     CLEAR     14  11  88 SE2       30.14S
PLATTSMOUTH    CLEAR     15  12  86 S7        30.13F WCI   5
WAHOO          FAIR      14  10  83 CALM      30.12F
$$



USA.gov is the U.S. government's official web portal to all federal, state and local government web resources and services.